SDM907 USPP-USSS

Flight info

Callsign SDM907
Flight time 0h 35m
Altitude 23000
Route DIDRO T762 BIKMA
Aircraft A20N/M-SDE2E3FGHIRWXY/LB1

Departure

Time 2026-04-27 18:03
Airport Perm International Airport (USPP)

Arrival

Time 2026-04-27 18:38
Airport Koltsovo Airport (USSS)
Time Latitude Longitude Altitude Speed Heading
2026-04-27 17:45 57.91783 56.01888 408 ft 0 kts 315°
2026-04-27 17:53 57.91782 56.01888 408 ft 1 kts 315°
2026-04-27 17:53 57.91766 56.01918 408 ft 4 kts 326°
2026-04-27 17:54 57.91746 56.01929 406 ft 3 kts 20°
2026-04-27 17:54 57.91736 56.01920 408 ft 0 kts 45°
2026-04-27 17:57 57.91737 56.01922 408 ft 1 kts 45°
2026-04-27 17:57 57.91753 56.01952 406 ft 5 kts 45°
2026-04-27 17:57 57.91786 56.02018 408 ft 9 kts 47°
2026-04-27 17:58 57.91837 56.02113 406 ft 12 kts 44°
2026-04-27 17:58 57.91902 56.02239 405 ft 15 kts 46°
2026-04-27 17:58 57.91981 56.02393 407 ft 18 kts 46°
2026-04-27 17:58 57.92073 56.02567 409 ft 20 kts 46°
2026-04-27 17:59 57.92174 56.02766 410 ft 22 kts 46°
2026-04-27 17:59 57.92286 56.02981 410 ft 24 kts 45°
2026-04-27 17:59 57.92406 56.03213 407 ft 26 kts 46°
2026-04-27 17:59 57.92532 56.03461 411 ft 27 kts 46°
2026-04-27 18:00 57.92630 56.03660 412 ft 4 kts 70°
2026-04-27 18:00 57.92628 56.03726 408 ft 6 kts 117°
2026-04-27 18:00 57.92603 56.03779 412 ft 0 kts 137°
2026-04-27 18:01 57.92601 56.03783 412 ft 2 kts 137°
2026-04-27 18:01 57.92584 56.03815 408 ft 5 kts 135°
2026-04-27 18:01 57.92549 56.03879 410 ft 9 kts 135°
2026-04-27 18:01 57.92499 56.03971 412 ft 11 kts 138°
2026-04-27 18:02 57.92429 56.04020 405 ft 11 kts 197°
2026-04-27 18:02 57.92406 56.03987 412 ft 1 kts 224°
2026-04-27 18:02 57.92273 56.03745 413 ft 62 kts 225°
2026-04-27 18:02 57.91820 56.02865 407 ft 121 kts 226°
2026-04-27 18:03 57.91127 56.01514 423 ft 163 kts 226°
2026-04-27 18:03 57.90355 55.99894 916 ft 169 kts 225°
2026-04-27 18:03 57.89592 55.98269 1711 ft 156 kts 217°
2026-04-27 18:03 57.88888 55.96895 2660 ft 143 kts 213°
2026-04-27 18:04 57.88134 55.95534 3196 ft 158 kts 214°
2026-04-27 18:04 57.87279 55.94005 3676 ft 182 kts 216°
2026-04-27 18:04 57.86360 55.92298 4618 ft 187 kts 219°
2026-04-27 18:04 57.85445 55.90547 5670 ft 191 kts 219°
2026-04-27 18:05 57.84741 55.89569 6271 ft 192 kts 206°
2026-04-27 18:05 57.83066 55.88374 7538 ft 195 kts 189°
2026-04-27 18:05 57.81700 55.88416 8508 ft 202 kts 171°
2026-04-27 18:05 57.80386 55.89488 9452 ft 212 kts 154°
2026-04-27 18:06 57.79076 55.91037 10045 ft 234 kts 153°
2026-04-27 18:06 57.77635 55.92757 10497 ft 257 kts 153°
2026-04-27 18:06 57.76058 55.94641 10928 ft 281 kts 152°
2026-04-27 18:06 57.74397 55.96861 11275 ft 310 kts 140°
2026-04-27 18:07 57.73160 56.00360 11878 ft 337 kts 117°
2026-04-27 18:07 57.72664 56.04752 12747 ft 352 kts 101°
2026-04-27 18:07 57.72490 56.09369 13609 ft 359 kts 99°
2026-04-27 18:07 57.72249 56.14043 14381 ft 362 kts 103°
2026-04-27 18:08 57.71866 56.18701 15202 ft 363 kts 106°
2026-04-27 18:08 57.71373 56.23364 15977 ft 367 kts 109°
2026-04-27 18:08 57.70821 56.27991 16774 ft 370 kts 110°
2026-04-27 18:08 57.70232 56.32705 17557 ft 374 kts 110°
2026-04-27 18:09 57.69628 56.37463 18258 ft 380 kts 110°
2026-04-27 18:09 57.69577 56.37867 18314 ft 380 kts 110°
2026-04-27 18:09 57.69564 56.37968 18328 ft 380 kts 110°
2026-04-27 18:10 57.69253 56.40414 18687 ft 381 kts 110°
2026-04-27 18:10 57.68684 56.44905 19333 ft 384 kts 111°
2026-04-27 18:11 57.68063 56.49795 20021 ft 388 kts 111°
2026-04-27 18:11 57.67438 56.54713 20684 ft 391 kts 111°
2026-04-27 18:11 57.66804 56.59687 21350 ft 395 kts 111°
2026-04-27 18:11 57.66163 56.64704 22011 ft 399 kts 111°
2026-04-27 18:12 57.65513 56.69770 22606 ft 403 kts 112°
2026-04-27 18:12 57.64856 56.74876 22812 ft 405 kts 112°
2026-04-27 18:12 57.64199 56.79982 22836 ft 405 kts 112°
2026-04-27 18:12 57.63539 56.85083 22821 ft 404 kts 111°
2026-04-27 18:13 57.62873 56.90198 22853 ft 406 kts 111°
2026-04-27 18:13 57.62205 56.95310 22851 ft 405 kts 111°
2026-04-27 18:13 57.61536 57.00408 22851 ft 405 kts 111°
2026-04-27 18:13 57.60864 57.05515 22850 ft 405 kts 111°
2026-04-27 18:14 57.60191 57.10618 22851 ft 405 kts 111°
2026-04-27 18:14 57.59516 57.15717 22828 ft 405 kts 111°
2026-04-27 18:14 57.58833 57.20840 22865 ft 408 kts 111°
2026-04-27 18:14 57.58150 57.25965 22868 ft 407 kts 111°
2026-04-27 18:15 57.57466 57.31087 22866 ft 407 kts 111°
2026-04-27 18:15 57.56779 57.36206 22865 ft 407 kts 111°
2026-04-27 18:15 57.55974 57.41228 22866 ft 402 kts 117°
2026-04-27 18:15 57.54876 57.45960 22879 ft 395 kts 124°
2026-04-27 18:16 57.53581 57.50451 22874 ft 394 kts 126°
2026-04-27 18:16 57.52287 57.54946 22872 ft 394 kts 126°
2026-04-27 18:16 57.50996 57.59450 22882 ft 394 kts 126°
2026-04-27 18:16 57.49707 57.63944 22886 ft 394 kts 126°
2026-04-27 18:17 57.48415 57.68448 22890 ft 394 kts 125°
2026-04-27 18:17 57.47167 57.72985 22890 ft 396 kts 124°
2026-04-27 18:17 57.45950 57.77568 22892 ft 396 kts 123°
2026-04-27 18:17 57.44732 57.82171 22884 ft 398 kts 123°
2026-04-27 18:18 57.43502 57.86786 22889 ft 399 kts 124°
2026-04-27 18:18 57.42282 57.91333 22897 ft 398 kts 124°
2026-04-27 18:18 57.41029 57.95981 22897 ft 398 kts 124°
2026-04-27 18:18 57.40208 57.99015 22896 ft 398 kts 124°
2026-04-27 18:19 57.38964 58.03600 22900 ft 398 kts 124°
2026-04-27 18:19 57.37717 58.08183 22912 ft 398 kts 124°
2026-04-27 18:19 57.36470 58.12760 22912 ft 398 kts 124°
2026-04-27 18:19 57.35221 58.17334 22919 ft 398 kts 124°
2026-04-27 18:20 57.33972 58.21902 22916 ft 398 kts 124°
2026-04-27 18:20 57.32719 58.26470 22916 ft 397 kts 124°
2026-04-27 18:20 57.31466 58.31032 22916 ft 398 kts 124°
2026-04-27 18:20 57.30211 58.35593 22917 ft 398 kts 124°
2026-04-27 18:21 57.28953 58.40153 22931 ft 400 kts 124°
2026-04-27 18:21 57.27684 58.44743 22929 ft 401 kts 124°
2026-04-27 18:21 57.26416 58.49324 22927 ft 400 kts 124°
2026-04-27 18:21 57.25146 58.53901 22926 ft 400 kts 124°
2026-04-27 18:22 57.23874 58.58480 22927 ft 400 kts 124°
2026-04-27 18:22 57.22604 58.63041 22906 ft 400 kts 124°
2026-04-27 18:22 57.21326 58.67618 22675 ft 400 kts 124°
2026-04-27 18:22 57.20054 58.72168 22220 ft 399 kts 124°
2026-04-27 18:23 57.18783 58.76705 21669 ft 396 kts 124°
2026-04-27 18:23 57.17526 58.81191 21109 ft 392 kts 124°
2026-04-27 18:23 57.16281 58.85621 20571 ft 387 kts 124°
2026-04-27 18:23 57.15050 58.89994 20021 ft 382 kts 124°
2026-04-27 18:24 57.13829 58.94309 19462 ft 378 kts 124°
2026-04-27 18:24 57.12623 58.98566 18958 ft 374 kts 123°
2026-04-27 18:24 57.11424 59.02789 18412 ft 371 kts 123°
2026-04-27 18:24 57.10232 59.06983 17865 ft 368 kts 123°
2026-04-27 18:25 57.09051 59.11134 17317 ft 364 kts 123°
2026-04-27 18:25 57.07883 59.15237 16803 ft 360 kts 123°
2026-04-27 18:25 57.06740 59.19246 16291 ft 357 kts 123°
2026-04-27 18:25 57.05593 59.23266 15777 ft 354 kts 123°
2026-04-27 18:26 57.04479 59.27276 15292 ft 353 kts 118°
2026-04-27 18:26 57.03797 59.31671 15057 ft 360 kts 109°
2026-04-27 18:26 57.03092 59.36080 14656 ft 361 kts 112°
2026-04-27 18:26 57.02350 59.40509 13983 ft 365 kts 112°
2026-04-27 18:27 57.01553 59.44981 13042 ft 372 kts 113°
2026-04-27 18:27 57.00708 59.49500 12252 ft 374 kts 113°
2026-04-27 18:27 56.99851 59.53973 11644 ft 370 kts 114°
2026-04-27 18:27 56.98995 59.58390 11092 ft 364 kts 113°
2026-04-27 18:28 56.98150 59.62722 10600 ft 358 kts 113°
2026-04-27 18:28 56.97323 59.66958 10382 ft 345 kts 113°
2026-04-27 18:28 56.96532 59.71010 10245 ft 331 kts 113°
2026-04-27 18:28 56.95772 59.74894 10120 ft 317 kts 113°
2026-04-27 18:29 56.95044 59.78606 9999 ft 303 kts 114°
2026-04-27 18:29 56.94339 59.82189 9718 ft 296 kts 114°
2026-04-27 18:29 56.93640 59.85727 9324 ft 294 kts 114°
2026-04-27 18:29 56.92939 59.89267 8901 ft 290 kts 114°
2026-04-27 18:30 56.92258 59.92699 8581 ft 285 kts 114°
2026-04-27 18:30 56.91580 59.96099 8193 ft 282 kts 115°
2026-04-27 18:30 56.90733 59.99268 7888 ft 273 kts 124°
2026-04-27 18:30 56.89780 60.02260 7598 ft 273 kts 124°
2026-04-27 18:31 56.88834 60.05264 7318 ft 271 kts 124°
2026-04-27 18:31 56.87904 60.08233 7054 ft 268 kts 124°
2026-04-27 18:31 56.86976 60.11193 6782 ft 268 kts 124°
2026-04-27 18:31 56.86053 60.14132 6473 ft 266 kts 124°
2026-04-27 18:32 56.85136 60.17046 6142 ft 263 kts 124°
2026-04-27 18:32 56.84218 60.19962 5800 ft 266 kts 124°
2026-04-27 18:32 56.83299 60.22875 5513 ft 263 kts 125°
2026-04-27 18:32 56.82397 60.25735 5240 ft 264 kts 125°
2026-04-27 18:33 56.81479 60.28638 4952 ft 263 kts 126°
2026-04-27 18:33 56.80570 60.31512 4612 ft 260 kts 126°
2026-04-27 18:33 56.79670 60.34355 4266 ft 257 kts 126°
2026-04-27 18:33 56.78781 60.37157 3929 ft 253 kts 126°
2026-04-27 18:34 56.77913 60.39890 3549 ft 245 kts 127°
2026-04-27 18:34 56.77066 60.42553 3124 ft 242 kts 127°
2026-04-27 18:34 56.76220 60.45200 2795 ft 240 kts 127°
2026-04-27 18:34 56.75567 60.47963 2698 ft 237 kts 111°
2026-04-27 18:35 56.75312 60.50862 2694 ft 226 kts 104°
2026-04-27 18:35 56.75196 60.53607 2691 ft 205 kts 102°
2026-04-27 18:35 56.75097 60.56108 2709 ft 200 kts 104°
2026-04-27 18:35 56.74994 60.58628 2728 ft 198 kts 103°
2026-04-27 18:36 56.74897 60.61111 2663 ft 195 kts 103°
2026-04-27 18:36 56.74798 60.63572 2409 ft 193 kts 102°
2026-04-27 18:36 56.74706 60.65984 2147 ft 188 kts 102°
2026-04-27 18:36 56.74607 60.68344 1851 ft 186 kts 101°
2026-04-27 18:37 56.74515 60.70681 1574 ft 177 kts 98°
2026-04-27 18:37 56.74436 60.72781 1353 ft 156 kts 99°
2026-04-27 18:37 56.74362 60.74632 1140 ft 137 kts 97°
2026-04-27 18:37 56.74295 60.76277 963 ft 124 kts 98°
2026-04-27 18:38 56.74232 60.77882 828 ft 128 kts 95°
2026-04-27 18:38 56.74165 60.79427 750 ft 105 kts 93°
2026-04-27 18:38 56.74133 60.80381 755 ft 46 kts 93°
2026-04-27 18:38 56.74116 60.80809 760 ft 32 kts 95°
2026-04-27 18:39 56.74094 60.81199 764 ft 30 kts 93°
2026-04-27 18:39 56.74085 60.81576 766 ft 29 kts 92°
2026-04-27 18:39 56.74071 60.81952 765 ft 30 kts 95°
2026-04-27 18:39 56.74124 60.82158 767 ft 16 kts 354°
2026-04-27 18:40 56.74220 60.82167 769 ft 0 kts
2026-04-27 18:40 56.74231 60.82168 769 ft 3 kts
2026-04-27 18:40 56.74266 60.82172 769 ft 7 kts
2026-04-27 18:40 56.74328 60.82181 769 ft 11 kts
2026-04-27 18:41 56.74413 60.82193 770 ft 14 kts
2026-04-27 18:41 56.74514 60.82200 772 ft 16 kts
2026-04-27 18:41 56.74641 60.82185 769 ft 19 kts 330°
2026-04-27 18:41 56.74659 60.81989 768 ft 18 kts 268°
2026-04-27 18:42 56.74658 60.81742 767 ft 21 kts 270°
2026-04-27 18:42 56.74659 60.81553 765 ft 24 kts 270°
2026-04-27 18:42 56.74656 60.81116 763 ft 28 kts 268°
2026-04-27 18:42 56.74661 60.80749 760 ft 30 kts 271°
2026-04-27 18:43 56.74661 60.80350 758 ft 29 kts 269°
2026-04-27 18:43 56.74683 60.80143 755 ft 4 kts 343°
2026-04-27 18:43 56.74730 60.80136 755 ft 9 kts 357°
2026-04-27 18:43 56.74807 60.80133 753 ft 13 kts
2026-04-27 18:44 56.74853 60.80034 756 ft 13 kts 274°
2026-04-27 18:44 56.74885 60.79956 753 ft 8 kts 345°
2026-04-27 18:44 56.74920 60.79944 754 ft 0 kts 357°
2026-04-27 18:45 56.74926 60.79944 754 ft 3 kts 357°
2026-04-27 18:45 56.74930 60.79944 754 ft 0 kts 357°